TimePST,TemperatureF,Dew PointF,Humidity,Sea Level PressureIn,VisibilityMPH,Wind Direction,Wind SpeedMPH,Gust SpeedMPH,PrecipitationIn,Events,Conditions,WindDirDegrees,DateUTC
12:53 AM,60.1,39.9,47,29.93,10.0,WSW,12.7,-,N/A,,Clear,250,2013-03-06 08:53:00
1:53 AM,59.0,39.9,49,29.94,10.0,West,16.1,25.3,N/A,,Clear,270,2013-03-06 09:53:00
2:53 AM,59.0,39.9,49,29.94,10.0,West,18.4,26.5,N/A,,Clear,270,2013-03-06 10:53:00
3:53 AM,57.0,39.0,51,29.95,10.0,West,12.7,-,N/A,,Clear,270,2013-03-06 11:53:00
4:53 AM,55.0,37.9,53,29.97,10.0,NNW,4.6,-,N/A,,Clear,340,2013-03-06 12:53:00
5:53 AM,54.0,37.9,55,29.97,10.0,NW,6.9,-,N/A,,Clear,310,2013-03-06 13:53:00
6:53 AM,55.9,37.9,51,29.99,10.0,NW,5.8,-,N/A,,Clear,310,2013-03-06 14:53:00
7:53 AM,60.1,39.0,46,30.02,10.0,WNW,6.9,-,N/A,,Clear,290,2013-03-06 15:53:00
8:53 AM,64.9,37.0,36,30.01,10.0,WNW,10.4,-,N/A,,Clear,300,2013-03-06 16:53:00
9:53 AM,66.9,36.0,32,30.00,10.0,NW,8.1,-,N/A,,Clear,310,2013-03-06 17:53:00
10:53 AM,71.1,34.0,26,29.99,10.0,Variable,3.5,-,N/A,,Clear,0,2013-03-06 18:53:00
11:53 AM,73.9,33.1,22,29.96,10.0,Variable,4.6,-,N/A,,Clear,0,2013-03-06 19:53:00
12:53 PM,75.9,32.0,20,29.92,10.0,West,4.6,-,N/A,,Clear,260,2013-03-06 20:53:00
1:53 PM,78.1,32.0,19,29.88,10.0,SE,8.1,-,N/A,,Clear,130,2013-03-06 21:53:00
2:53 PM,78.1,35.1,21,29.87,10.0,East,6.9,-,N/A,,Clear,100,2013-03-06 22:53:00
3:53 PM,78.1,35.1,21,29.86,10.0,ESE,3.5,-,N/A,,Clear,120,2013-03-06 23:53:00
4:53 PM,77.0,37.0,24,29.84,10.0,SW,9.2,20.7,N/A,,Clear,230,2013-03-07 00:53:00
5:16 PM,73.4,39.2,29,29.86,10.0,NNW,11.5,-,N/A,,Clear,340,2013-03-07 01:16:00
5:53 PM,69.1,37.9,32,29.86,10.0,West,12.7,-,N/A,,Clear,260,2013-03-07 01:53:00
6:53 PM,68.0,37.9,33,29.87,10.0,West,16.1,-,N/A,,Clear,280,2013-03-07 02:53:00
7:53 PM,66.0,39.0,37,29.88,10.0,West,18.4,27.6,N/A,,Clear,270,2013-03-07 03:53:00
8:53 PM,63.0,39.9,43,29.91,10.0,West,12.7,-,N/A,,Clear,280,2013-03-07 04:53:00
9:53 PM,59.0,41.0,51,29.91,10.0,West,11.5,-,N/A,,Clear,280,2013-03-07 05:53:00
10:53 PM,59.0,41.0,51,29.91,10.0,WNW,4.6,-,N/A,,Clear,290,2013-03-07 06:53:00
11:53 PM,63.0,39.0,41,29.89,10.0,Variable,4.6,-,N/A,,Clear,0,2013-03-07 07:53:00